DW2959 Murcia ES current weather conditions

sailwx.info

Wind from 059

Air temperature 22.2° C
Dewpoint 19.2° C

Last reported at 2014-Sep-02 00:55 UTC.
Time now 2014-Sep-02 02:01 UTC

Location: N 38°00' W 001°02'.
View on Google Maps.

See reports from other nearby stations

  
Tides and Currents Weather Stations Pressure Air Temp Water Temp Dewpoint Dewpoint Depression Visibility Wind Speed Wind Dir Waves Ship Positions
date/time (UTC)wind fromknots sea level pressurealtimeterstation pressurevisibilityair tempwater tempwave heightnotes
2014-Sep-02 00:55 059 22.2
2014-Sep-02 00:40 059 22.8
2014-Sep-02 00:25 059 23.3
2014-Sep-02 00:09 059 23.3
2014-Sep-01 23:54 059 23.3
2014-Sep-01 23:40 059 23.9
2014-Sep-01 23:25 059 23.9
2014-Sep-01 23:09 059 23.9
2014-Sep-01 22:54 058 1 24.4
2014-Sep-01 22:39 069 24.4
2014-Sep-01 22:25 069 24.4
2014-Sep-01 22:08 069 0 24.4
2014-Sep-01 21:54 069 0 25.0
2014-Sep-01 21:40 067 0 25.0
2014-Sep-01 21:23 063 0 25.6
2014-Sep-01 21:08 061 0 26.1
2014-Sep-01 20:54 058 0 26.1
2014-Sep-01 20:39 055 1 26.7
2014-Sep-01 20:23 048 4 27.2
2014-Sep-01 20:08 093 2 27.8
2014-Sep-01 19:54 105 0 28.3
2014-Sep-01 19:38 112 0 28.3
2014-Sep-01 19:23 130 1 28.9
2014-Sep-01 19:08 122 3 28.9
2014-Sep-01 18:54 119 3 29.4
2014-Sep-01 18:38 095 3 30.0
2014-Sep-01 18:23 126 0 30.6
2014-Sep-01 18:08 159 1 31.1
2014-Sep-01 17:53 151 2 31.7
2014-Sep-01 17:39 111 2 31.7
2014-Sep-01 17:22 142 2 32.2
2014-Sep-01 17:08 119 2 32.2
2014-Sep-01 16:53 132 2 32.8
2014-Sep-01 16:37 163 4 32.8
2014-Sep-01 16:22 133 3 32.8
2014-Sep-01 16:08 112 3 33.3
2014-Sep-01 15:53 159 3 32.8
2014-Sep-01 15:36 130 4 33.3
2014-Sep-01 15:22 128 4 33.3
2014-Sep-01 15:07 143 4 33.9
2014-Sep-01 14:53 119 4 33.9
2014-Sep-01 14:36 151 4 33.9
2014-Sep-01 14:22 127 4 33.3
2014-Sep-01 14:07 116 4 33.9
2014-Sep-01 13:52 164 5 33.9
2014-Sep-01 13:36 123 4 33.9
2014-Sep-01 13:21 104 2 33.9
2014-Sep-01 13:06 101 2 33.9
2014-Sep-01 12:52 081 2 33.9
2014-Sep-01 12:37 059 1 33.3
2014-Sep-01 12:20 149 2 33.3
2014-Sep-01 12:06 072 3 32.8
2014-Sep-01 11:51 057 2 32.8
2014-Sep-01 11:36 049 2 32.2
2014-Sep-01 11:21 103 3 31.1
2014-Sep-01 11:05 070 1 31.1
2014-Sep-01 10:50 067 1 30.6
2014-Sep-01 10:36 096 2 30.0
2014-Sep-01 10:21 035 1 30.0
2014-Sep-01 10:06 084 1 29.4
2014-Sep-01 09:50 100 0 28.3
2014-Sep-01 09:35 100 0 27.8
2014-Sep-01 09:20 107 27.8
2014-Sep-01 09:06 108 0 27.2
2014-Sep-01 08:49 120 26.1
2014-Sep-01 08:35 207 25.6
2014-Sep-01 08:20 207 25.0
2014-Sep-01 08:05 204 1 24.4
2014-Sep-01 07:49 271 1 23.9
2014-Sep-01 07:34 270 1 23.3
2014-Sep-01 07:19 269 1 23.3
2014-Sep-01 07:04 263 1 22.8
2014-Sep-01 06:50 085 22.2
2014-Sep-01 06:33 085 21.7
2014-Sep-01 06:18 085 21.1
2014-Sep-01 06:04
2014-Sep-01 05:48
2014-Sep-01 05:34
2014-Sep-01 05:19
2014-Sep-01 05:04
2014-Sep-01 04:48
2014-Sep-01 04:33
2014-Sep-01 04:18
2014-Sep-01 04:03
2014-Sep-01 03:47
2014-Sep-01 03:32
2014-Sep-01 03:17
2014-Sep-01 03:02
2014-Sep-01 02:47 084 21.1
2014-Sep-01 02:32 084 21.1
2014-Sep-01 02:17 084 21.7
2014-Sep-01 02:02 084 21.7
2014-Sep-01 01:46 084 22.2
2014-Sep-01 01:31 084 22.2
2014-Sep-01 01:16 084 22.2
2014-Sep-01 01:02 084 22.2
2014-Sep-01 00:47 084 22.2
2014-Sep-01 00:31 084 22.8
2014-Sep-01 00:16 084 22.8
2014-Sep-01 00:01 084 22.8
2014-Aug-31 23:46 084 22.8
2014-Aug-31 23:31 084 23.3
2014-Aug-31 23:17 084 23.3
2014-Aug-31 23:00 084 23.3
2014-Aug-31 22:45 084 23.9
2014-Aug-31 22:30 084 23.9
2014-Aug-31 22:16 084 24.4
2014-Aug-31 22:01 084 24.4
2014-Aug-31 21:47 084 24.4
2014-Aug-31 21:30 084 24.4
2014-Aug-31 21:16 084 25.0
2014-Aug-31 21:01 084 25.0
2014-Aug-31 20:46 084 25.0
2014-Aug-31 20:30 084 25.6
2014-Aug-31 20:15 084 0 25.6
2014-Aug-31 20:00 083 0 25.6
2014-Aug-31 19:45 084 0 25.6
2014-Aug-31 19:30 083 1 26.1
2014-Aug-31 19:16 086 3 26.1
2014-Aug-31 18:59 085 1 26.1
2014-Aug-31 18:44 076 2 26.7
2014-Aug-31 18:29 094 2 27.2
2014-Aug-31 18:14 075 2 27.2
2014-Aug-31 17:59 096 4 27.8
2014-Aug-31 17:45 108 1 28.3
2014-Aug-31 17:30 079 3 28.3
2014-Aug-31 17:14 101 4 28.9
2014-Aug-31 16:59 122 3 28.9
2014-Aug-31 16:44 123 2 29.4
2014-Aug-31 16:29 105 4 29.4
2014-Aug-31 16:14 098 4 30.0
2014-Aug-31 15:59 086 5 30.0
2014-Aug-31 15:44 085 5 30.0
2014-Aug-31 15:29 060 5 30.6
2014-Aug-31 15:14 052 4 30.6
2014-Aug-31 15:00 055 5 30.6
2014-Aug-31 14:43 065 2 31.1
2014-Aug-31 14:28 074 4 31.1
2014-Aug-31 14:14 077 3 31.1
2014-Aug-31 13:58 080 5 30.6
2014-Aug-31 13:43 078 4 30.6
2014-Aug-31 13:28 051 4 31.1
2014-Aug-31 13:14 097 3 30.6
2014-Aug-31 12:59 061 3 30.6
2014-Aug-31 12:43 026 4 30.0
2014-Aug-31 12:28 086 3 30.0
2014-Aug-31 12:13 106 3 30.0
2014-Aug-31 11:59 097 2 30.0
2014-Aug-31 11:42 092 2 29.4
2014-Aug-31 11:28 047 3 28.9
2014-Aug-31 11:13 065 3 28.9
2014-Aug-31 10:58 084 1 28.3
2014-Aug-31 10:43 076 2 28.9
2014-Aug-31 10:27 078 1 28.3
2014-Aug-31 10:12 080 0 27.8
2014-Aug-31 09:58 080 0 27.8
2014-Aug-31 09:43 078 0 27.2
2014-Aug-31 09:27 206 26.7
2014-Aug-31 09:12 206 26.1
2014-Aug-31 08:57 206 26.1
2014-Aug-31 08:42 200 0 25.6
2014-Aug-31 08:26 200 0 25.6
2014-Aug-31 08:12 211 1 25.0
2014-Aug-31 07:57 209 2 25.0
2014-Aug-31 07:41 171 0 24.4
2014-Aug-31 07:26 164 0 23.9
2014-Aug-31 07:11 114 0 23.3
2014-Aug-31 06:57 074 22.8
2014-Aug-31 06:42 074 22.2
2014-Aug-31 06:25 074 21.7
2014-Aug-31 06:11
2014-Aug-31 05:55
2014-Aug-31 05:41
2014-Aug-31 05:25
2014-Aug-31 05:10
2014-Aug-31 04:55
2014-Aug-31 04:41
2014-Aug-31 04:26
2014-Aug-31 04:10
2014-Aug-31 03:55
2014-Aug-31 03:39
2014-Aug-31 03:25
2014-Aug-31 03:09
2014-Aug-31 02:54
2014-Aug-31 02:39 074 22.8
2014-Aug-31 02:24 074 22.8
2014-Aug-31 02:09 074 22.8